DMSP 5D-2 F13 DEB, 40563

Orbit data source: Space-Track

DMSP 5D-2 F13 DEB, 40563 is space debris in SSO originally from a launch on Fri, 24 Mar 1995 UTC launched from the Air Force Western Test Range (AFWTR). Debris objects in space refer to the collection of defunct objects orbiting the Earth. Examples of debris include non-operational satellites, rocket bodies, and fragments generated from explosions, collisions, or faulty payload assembly.

Loading next visibility...
Identifier
40563, 1995-015DW
Orbit
SSO
Country
Flag of USUS
Related business
Manufacturer
Unknown
Mission
Spacecraft
Bus & Motor
Unknown
Mass
Unknown
Launch date (UTC)
1995-03-24 (31 years ago)
Launch vehicle
Unknown
Launch site
Air Force Western Test Range (AFWTR)
Object type
Payload
Rocket body
Debris
Shape & HBR
Unknown shape, 0.1 m
Radar Cross Section
Small (<0.1 m²)

Expand to show TLE details & history
Last TLE update: 14 hours ago

TLE from 14 hours ago
0 DMSP 5D-2 F13 DEB
1 40563U 95015DW  26035.06158610  .00006503  00000-0  19397-2 0  9996
2 40563  98.6574  75.5166 0015594  15.6915 344.4755 14.43292468563795
Epoch: 2026-02-04T01:28Z
TLE epoch observation values (Epoch: 2026-02-04T01:28:41.039Z)
Latitude
0.00003°
Longitude
-80.88797°
Altitude
739.881 km
Speed
7.491 km/s
True Right ascension
05h 02m 03s
True Declination
0° 00' 00"
Sunlit
Object was in partial shadow at epoch
Visualization orbit readout
Latitude
Unknown
Longitude
Unknown
Altitude
Unknown
Speed
Unknown
Apparent Right ascension
Unknown
Apparent Declination
Unknown
Sunlit
N/A
Visualization observer readout
Local Sidereal Time
17:18:10
Azimuth
Unknown
Elevation
Unknown
Doppler factor
Unknown
Orbital elements
Apogee altitude
755.873 km
Perigee altitude
733.658 km
Semi-major axis
7,122.903 km
Eccentricity
0.00156
Inclination
98.6574°
RAAN
75.5166°
Arg. of periapsis
15.6915°
True anomaly
344.42758°
Mean anomaly
344.4755°
Eccentric anomaly
344.45155°
Mean motion
3.61042 °/min
Orbital period
99.71 mins
BSTAR
0.0019397
Loading maneuver chart data...
Computing Atmospheric mass density...

Documentation

Showing up to 5 results
|